Location: Capel Gartheli
(52.1833°N, 4.0667°W)
Time: 05:03:51
(UTC+00:00)

COSMO-SKYMED 1 - Pass Details

Date: 18 February 2020
Orbit: 621 x 623 km, 97.9° (Epoch: 29 March)

Event Time Altitude Azimuth Distance (km) Brightness Sun altitude
Rises 05:54:55 0° 185° (S) 2,895 6.0 -14.7°
Reaches altitude 10° 05:57:13 10° 193° (SSW) 1,993 5.0 -14.3°
Maximum altitude 06:01:17 39° 263° (W) 949 3.0 -13.7°
Drops below altitude 10° 06:05:23 10° 332° (NNW) 2,009 4.9 -13.1°
Sets 06:07:43 0° 341° (NNW) 2,920 5.8 -12.7°
